Hourly Data Report for October 18, 2013

All times are specified in Local Standard Time (LST). Add 1 hour to adjust for Daylight Saving Time where and when it is observed.

GRISE FIORD CLIMATE
NUNAVUT

76°25'22.040" N
82°54'08.020" W
44.50 m
2402351
71971
NGC

Download Data

Hourly Data (October 2013)
Hourly Data Report for October 18, 2013
Temp Definition
°C
Dew Point Temp Definition
°C
Rel Hum Definition
%
Wind Dir Definition
10's deg

Wind Spd Definition
km/h
Visibility Definition
km
Stn Press Definition
kPa
Hmdx Definition


Wind Chill Definition


Weather Definition


TIME
00:00 -7.1 -7.6 96   0   100.95     LegendNANA
01:00 -6.4 -7.1 95 1 4   100.97   -8 LegendNANA
02:00 -4.9 -6.0 92 26 6   100.96   -8 LegendNANA
03:00 -7.3 -8.2 93 5 6   100.96   -10 LegendNANA
04:00 -7.0 -7.8 94 5 2   100.97   -8 LegendNANA
05:00 -6.1 -6.6 96 11 2   100.99   -7 LegendNANA
06:00 -6.9 -7.9 93   0   101.00     LegendNANA
07:00 -6.8 -7.8 93 2 2   101.01   -8 LegendNANA
08:00 -6.9 -7.6 95 1 4   101.00   -9 LegendNANA
09:00 -6.5 -7.5 93 3 4   100.99   -8 LegendNANA
10:00 -6.5 -6.8 98 15 4   101.00   -8 LegendNANA
11:00 -6.4 -6.8 97   0   101.00     LegendNANA
12:00 -7.5 -8.1 95 6 4   101.01   -10 LegendNANA
13:00 -8.2 -9.0 94 2 4   101.01   -10 LegendNANA
14:00 -7.8 -8.3 96 7 2   101.01   -9 LegendNANA
15:00 -8.1 -8.4 98 3 4   101.02   -10 LegendNANA
16:00 -8.2 -8.4 98 8 2   101.03   -9 LegendNANA
17:00 -8.8 -9.1 98 6 2   101.04   -10 LegendNANA
18:00 -7.8 -8.2 97 4 2   101.02   -9 LegendNANA
19:00 -7.0 -7.3 98 6 2   101.04   -8 LegendNANA
20:00 -6.5 -7.0 96   0   101.04     LegendNANA
21:00 -6.3 -7.0 95 17 4   101.03   -8 LegendNANA
22:00 -5.4 -5.9 96 36 2   101.06   -6 LegendNANA
23:00 -5.9 -6.5 96 2 4   101.08   -8 LegendNANA

Notes on Data Quality.

Legend

  • E = Estimated
  • M = Missing
  • NA = Not Available
  • ‡ = Partner data that is not subject to review by the National Climate Archives
Date modified: